This demonstration page uses our WeatherBlox Daily Observations layout. Learn more.

Left ArrowRight Arrow

Hourly Observations for June 30, 2020

Temp ( °F °C ) Dew Point ( °F °C ) Humidity (%) Winds ( mph kmh ) Pressure ( in mb ) Visibility ( mi km ) Precip ( " mm )
12:53 am 00:53 Clear 72 22.2 67 19.4 84 84 N 3 6 29.97 1015 10 16 0.00 0.00
1:53 am 01:53 Clear 73 22.8 67 19.4 81 81 Calm 29.96 1015 10 16 0.00 0.00
2:53 am 02:53 Clear 74 23.3 67 19.4 79 79 Calm 29.95 1014 10 16 0.00 0.00
3:53 am 03:53 Clear 73 22.8 67 19.4 81 81 N 3 6 29.94 1014 10 16 0.00 0.00
4:53 am 04:53 Clear 73 22.8 66 18.9 79 79 Calm 29.95 1014 10 16 0.00 0.00
5:53 am 05:53 Clear 72 22.2 66 18.9 82 82 Calm 29.95 1014 10 16 0.00 0.00
6:53 am 06:53 Sunny 71 21.7 66 18.9 84 84 Calm 29.97 1015 10 16 0.00 0.00
7:23 am 07:23 Mostly Sunny 72 22.2 66 18.9 82 82 SW 3 6 29.98 1015 10 16 0.00 0.00
7:53 am 07:53 Sunny 73 22.8 67 19.4 81 81 SW 5 7 29.98 1015 10 16 0.00 0.00
8:53 am 08:53 Mostly Sunny 74 23.3 67 19.4 79 79 W 3 6 30.00 1016 10 16 0.00 0.00
9:53 am 09:53 Sunny 78 25.6 68 20 71 71 Calm 29.99 1016 10 16 0.00 0.00
10:53 am 10:53 Sunny 81 27.2 67 19.4 62 62 NW 6 9 29.99 1016 10 16 0.00 0.00
11:53 am 11:53 Sunny 85 29.4 69 20.6 59 59 W 6 9 29.99 1016 10 16 0.00 0.00
12:53 pm 12:53 Sunny 87 30.6 69 20.6 55 55 WNW 9 15 29.98 1015 10 16 0.00 0.00
1:53 pm 13:53 Mostly Sunny 87 30.6 68 20 53 53 NW 9 15 29.96 1015 10 16 0.00 0.00
2:53 pm 14:53 Partly Cloudy 88 31.1 68 20 52 52 WNW 8 13 29.94 1014 10 16 0.00 0.00
3:53 pm 15:53 Sunny with Nearby Thunderstorms 88 31.1 68 20 52 52 VRB 5 7 29.92 1013 10 16 0.00 0.00
4:02 pm 16:02 Mostly Sunny 87 30.6 68 20 53 53 NW 6 9 29.90 1012 10 16 0.00 0.00
4:12 pm 16:12 Partly Cloudy with Nearby Thunderstorms 87 30.6 69 20.6 55 55 VRB 6 9 29.90 1012 10 16 0.00 0.00
4:40 pm 16:40 Mostly Cloudy with Thunderstorms 79 26.1 68 20 69 69 WSW 10 17 29.93 1014 10 16 0.00 0.00
4:53 pm 16:53 Mostly Cloudy with Nearby Thunderstorms 75 23.9 68 20 79 79 SW 14 22 29.96 1015 10 16 0.00 0.00
5:03 pm 17:03 Cloudy with Thunderstorms 73 22.8 68 20 84 84 VRB 5 7 29.97 1015 10 16 0.00 0.00
5:24 pm 17:24 Cloudy with Nearby Thunderstorms 74 23.3 69 20.6 85 85 SSE 7 11 29.97 1015 8 13 0.03 0.76
5:42 pm 17:42 Mostly Cloudy with Light Rain 74 23.3 69 20.6 85 85 WNW 5 7 29.97 1015 10 16 0.03 0.76
5:53 pm 17:53 Partly Cloudy 74 23.3 69 20.6 85 85 WNW 5 7 29.97 1015 10 16 0.03 0.76
6:53 pm 18:53 Mostly Sunny 74 23.3 70 21.1 88 88 SSW 7 11 29.95 1014 10 16 0.00 0.00
7:53 pm 19:53 Mostly Sunny 73 22.8 69 20.6 87 87 SSW 5 7 29.95 1014 10 16 0.00 0.00
8:53 pm 20:53 Clear 73 22.8 69 20.6 87 87 Calm 29.94 1014 10 16 0.00 0.00
9:53 pm 21:53 Clear 74 23.3 68 20 82 82 SSW 3 6 29.94 1014 10 16 0.00 0.00
10:53 pm 22:53 Mostly Clear 73 22.8 68 20 84 84 SW 5 7 29.96 1015 10 16 0.00 0.00
11:53 pm 23:53 Clear 72 22.2 67 19.4 84 84 NNW 3 6 29.93 1014 10 16 0.00 0.00

Powered by AerisWeather